| time (UTC) | temp F | wind direction | speed MPH | gust MPH | rain 1hr in | rain 24hr in | rain mn in | humidity % | barometer mb |
| 20260901135503 | 66 | 268 | 2.0 | 10.0 | 0.00 | 0.00 | 0.00 | 83 | 1010.0 |
| 20260901134503 | 66 | 259 | 2.0 | 6.0 | 0.00 | 0.00 | 0.00 | 82 | 1010.0 |
| 20260901134004 | 67 | 266 | 3.0 | 11.0 | 0.00 | 0.00 | 0.00 | 82 | 1010.0 |
| 20260901133503 | 67 | 265 | 5.0 | 11.0 | 0.00 | 0.00 | 0.00 | 82 | 1010.0 |
| 20260901132005 | 66 | 261 | 2.0 | 10.0 | 0.00 | 0.00 | 0.00 | 83 | 1010.0 |
| 20260901131504 | 66 | 261 | 3.0 | 10.0 | 0.00 | 0.00 | 0.00 | 83 | 1010.0 |
| 20260901130503 | 67 | 271 | 2.0 | 10.0 | 0.00 | 0.00 | 0.00 | 82 | 1010.0 |
| 20260901130005 | 67 | 275 | 2.0 | 6.0 | 0.00 | 0.00 | 0.00 | 84 | 1010.0 |
| 20260901125504 | 66 | 279 | 2.0 | 6.0 | 0.00 | 0.00 | 0.00 | 83 | 1010.0 |
| 20260901125005 | 66 | 276 | 4.0 | 10.0 | 0.00 | 0.00 | 0.00 | 83 | 1010.0 |
| 20260901124503 | 66 | 278 | 5.0 | 10.0 | 0.00 | 0.00 | 0.00 | 83 | 1010.0 |
| 20260901124005 | 66 | 271 | 4.0 | 10.0 | 0.00 | 0.00 | 0.00 | 82 | 1010.0 |
| 20260901123504 | 66 | 271 | 3.0 | 9.0 | 0.00 | 0.00 | 0.00 | 83 | 1010.0 |
| 20260901123005 | 66 | 279 | 3.0 | 9.0 | 0.00 | 0.00 | 0.00 | 83 | 1010.0 |
| 20260901122504 | 67 | 258 | 3.0 | 9.0 | 0.00 | 0.00 | 0.00 | 84 | 1010.0 |
| 20260901122005 | 67 | 268 | 4.0 | 14.0 | 0.00 | 0.00 | 0.00 | 84 | 1010.0 |
| 20260901121504 | 66 | 281 | 4.0 | 14.0 | 0.00 | 0.00 | 0.00 | 83 | 1010.0 |
| 20260901121005 | 66 | 281 | 4.0 | 10.0 | 0.00 | 0.00 | 0.00 | 83 | 1010.0 |
| 20260901120504 | 66 | 282 | 6.0 | 14.0 | 0.00 | 0.00 | 0.00 | 82 | 1010.0 |
| 20260901120005 | 66 | 274 | 6.0 | 14.0 | 0.00 | 0.00 | 0.00 | 82 | 1010.0 |
| 20260901115005 | 66 | 275 | 5.0 | 10.0 | 0.00 | 0.00 | 0.00 | 84 | 1009.0 |
| 20260901114503 | 66 | 268 | 6.0 | 10.0 | 0.00 | 0.00 | 0.00 | 83 | 1009.0 |
| 20260901114006 | 66 | 267 | 6.0 | 10.0 | 0.00 | 0.00 | 0.00 | 82 | 1009.0 |
| 20260901113004 | 67 | 280 | 5.0 | 11.0 | 0.00 | 0.00 | 0.00 | 82 | 1009.0 |
| 20260901112504 | 67 | 285 | 4.0 | 12.0 | 0.00 | 0.00 | 0.00 | 84 | 1009.0 |
| 20260901112005 | 66 | 295 | 4.0 | 12.0 | 0.00 | 0.00 | 0.00 | 85 | 1009.0 |
| 20260901111504 | 66 | 294 | 4.0 | 9.0 | 0.00 | 0.05 | 0.00 | 85 | 1009.0 |
| 20260901111004 | 66 | 265 | 4.0 | 11.0 | 0.00 | 0.05 | 0.00 | 86 | 1010.0 |
| 20260901110504 | 66 | 267 | 4.0 | 11.0 | 0.00 | 0.05 | 0.00 | 85 | 1010.0 |
| 20260901110005 | 66 | 280 | 5.0 | 11.0 | 0.00 | 0.05 | 0.00 | 85 | 1010.0 |
| 20260901105504 | 66 | 271 | 7.0 | 12.0 | 0.00 | 0.05 | 0.00 | 85 | 1010.0 |
| 20260901105005 | 66 | 270 | 5.0 | 12.0 | 0.00 | 0.05 | 0.00 | 85 | 1010.0 |
| 20260901104504 | 66 | 279 | 3.0 | 13.0 | 0.00 | 0.05 | 0.00 | 86 | 1010.0 |
| 20260901104004 | 66 | 284 | 4.0 | 13.0 | 0.00 | 0.05 | 0.00 | 85 | 1011.0 |
| 20260901103504 | 66 | 286 | 5.0 | 12.0 | 0.00 | 0.05 | 0.00 | 86 | 1011.0 |
| 20260901102504 | 66 | 273 | 4.0 | 12.0 | 0.00 | 0.05 | 0.00 | 87 | 1010.0 |
| 20260901102005 | 66 | 276 | 4.0 | 11.0 | 0.00 | 0.05 | 0.00 | 87 | 1010.0 |
| 20260901101503 | 66 | 273 | 3.0 | 11.0 | 0.00 | 0.05 | 0.00 | 87 | 1010.0 |
| 20260901101004 | 66 | 274 | 4.0 | 9.0 | 0.00 | 0.05 | 0.00 | 86 | 1010.0 |
| 20260901100503 | 66 | 277 | 3.0 | 9.0 | 0.00 | 0.05 | 0.00 | 86 | 1010.0 |
| 20260901100005 | 66 | 271 | 4.0 | 12.0 | 0.00 | 0.05 | 0.00 | 86 | 1010.0 |
| 20260901095503 | 66 | 272 | 5.0 | 12.0 | 0.00 | 0.05 | 0.00 | 86 | 1009.0 |
| 20260901095005 | 66 | 266 | 3.0 | 8.0 | 0.00 | 0.05 | 0.00 | 87 | 1009.0 |
| 20260901094504 | 66 | 267 | 4.0 | 12.0 | 0.00 | 0.05 | 0.00 | 87 | 1009.0 |
| 20260901093503 | 66 | 258 | 4.0 | 11.0 | 0.00 | 0.05 | 0.00 | 87 | 1009.0 |
| 20260901093005 | 66 | 270 | 3.0 | 10.0 | 0.00 | 0.05 | 0.00 | 87 | 1009.0 |
| 20260901092005 | 66 | 271 | 5.0 | 13.0 | 0.00 | 0.05 | 0.00 | 87 | 1008.0 |
| 20260901091005 | 66 | 280 | 3.0 | 10.0 | 0.00 | 0.05 | 0.00 | 88 | 1008.0 |
| 20260901090503 | 66 | 272 | 4.0 | 10.0 | 0.00 | 0.05 | 0.00 | 88 | 1008.0 |
| 20260901090005 | 65 | 265 | 4.0 | 12.0 | 0.00 | 0.05 | 0.00 | 89 | 1008.0 |
| 20260901085504 | 65 | 263 | 4.0 | 12.0 | 0.00 | 0.05 | 0.00 | 89 | 1008.0 |
| 20260901085005 | 65 | 257 | 3.0 | 9.0 | 0.00 | 0.05 | 0.00 | 89 | 1008.0 |
| 20260901084504 | 65 | 261 | 2.0 | 8.0 | 0.00 | 0.05 | 0.00 | 89 | 1008.0 |
| 20260901084005 | 65 | 265 | 3.0 | 8.0 | 0.00 | 0.05 | 0.00 | 89 | 1008.0 |
| 20260901083504 | 65 | 262 | 5.0 | 10.0 | 0.00 | 0.05 | 0.00 | 89 | 1008.0 |
| 20260901083005 | 65 | 261 | 5.0 | 10.0 | 0.00 | 0.05 | 0.00 | 89 | 1008.0 |
| 20260901082503 | 65 | 265 | 3.0 | 8.0 | 0.00 | 0.05 | 0.00 | 89 | 1006.9 |
| 20260901082005 | 65 | 287 | 2.0 | 8.0 | 0.00 | 0.05 | 0.00 | 89 | 1006.9 |
| 20260901081504 | 64 | 284 | 2.0 | 6.0 | 0.00 | 0.05 | 0.00 | 89 | 1006.9 |
| 20260901080009 | 64 | 267 | 4.0 | 8.0 | 0.00 | 0.05 | 0.00 | 89 | 1008.0 |
| 20260901075503 | 64 | 266 | 4.0 | 11.0 | 0.00 | 0.05 | 0.00 | 92 | 1009.0 |
| 20260901075005 | 64 | 271 | 3.0 | 11.0 | 0.00 | 0.05 | 0.00 | 93 | 1009.0 |
| 20260901074504 | 64 | 261 | 4.0 | 11.0 | 0.00 | 0.05 | 0.00 | 94 | 1009.0 |
| 20260901074005 | 64 | 253 | 6.0 | 11.0 | 0.00 | 0.05 | 0.00 | 94 | 1008.0 |
| 20260901073503 | 64 | 258 | 4.0 | 10.0 | 0.00 | 0.05 | 0.00 | 94 | 1008.0 |
| 20260901073005 | 63 | 283 | 3.0 | 9.0 | 0.00 | 0.05 | 0.00 | 95 | 1008.0 |
| 20260901072503 | 63 | 269 | 3.0 | 9.0 | 0.00 | 0.05 | 0.00 | 96 | 1008.0 |
| 20260901072005 | 63 | 269 | 3.0 | 8.0 | 0.00 | 0.05 | 0.00 | 96 | 1008.0 |
| 20260901071503 | 63 | 279 | 2.0 | 8.0 | 0.00 | 0.05 | 0.00 | 96 | 1008.0 |
| 20260901071004 | 63 | 280 | 1.0 | 6.0 | 0.00 | 0.05 | 0.00 | 97 | 1008.0 |
| 20260901070005 | 63 | 257 | 3.0 | 10.0 | 0.00 | 0.05 | 0.00 | 97 | 1008.0 |
| 20260901065503 | 63 | 257 | 3.0 | 10.0 | 0.00 | 0.05 | 0.00 | 97 | 1008.0 |
| 20260901064503 | 62 | 267 | 4.0 | 9.0 | 0.00 | 0.05 | 0.00 | 100 | 1008.0 |
| 20260901064004 | 62 | 258 | 4.0 | 9.0 | 0.00 | 0.05 | 0.00 | 100 | 1008.0 |
| 20260901063504 | 62 | 254 | 2.0 | 7.0 | 0.00 | 0.05 | 0.00 | 100 | 1008.0 |
| 20260901063005 | 62 | 262 | 2.0 | 7.0 | 0.00 | 0.05 | 0.00 | 100 | 1008.0 |
| 20260901062503 | 61 | 253 | 2.0 | 7.0 | 0.00 | 0.05 | 0.00 | 100 | 1006.9 |
| 20260901062005 | 61 | 258 | 2.0 | 8.0 | 0.00 | 0.05 | 0.00 | 100 | 1006.9 |
| 20260901061504 | 60 | 268 | 3.0 | 8.0 | 0.00 | 0.05 | 0.00 | 100 | 1006.9 |
| 20260901061005 | 60 | 273 | 3.0 | 8.0 | 0.00 | 0.05 | 0.00 | 100 | 1006.9 |
| 20260901055005 | 60 | 266 | 3.0 | 8.0 | 0.00 | 0.05 | 0.00 | 100 | 1006.9 |
| 20260901054503 | 60 | 263 | 3.0 | 8.0 | 0.00 | 0.05 | 0.00 | 100 | 1006.9 |
| 20260901054004 | 60 | 261 | 2.0 | 5.0 | 0.00 | 0.05 | 0.00 | 100 | 1006.9 |
| 20260901053504 | 60 | 264 | 1.0 | 5.0 | 0.00 | 0.05 | 0.00 | 100 | 1006.9 |
| 20260901053005 | 60 | 242 | 0.0 | 3.0 | 0.00 | 0.05 | 0.00 | 100 | 1006.9 |
| 20260901052503 | 60 | 0 | 0.0 | 0.0 | 0.00 | 0.05 | 0.00 | 100 | 1006.9 |
| 20260901052005 | 60 | 0 | 0.0 | 0.0 | 0.00 | 0.05 | 0.00 | 100 | 1006.9 |
| 20260901051004 | 60 | 292 | 0.0 | 3.0 | 0.00 | 0.05 | 0.00 | 100 | 1006.9 |
| 20260901050503 | 60 | 270 | 1.0 | 4.0 | 0.00 | 0.05 | 0.00 | 100 | 1006.9 |
| 20260901050005 | 59 | 267 | 0.0 | 4.0 | 0.00 | 0.05 | 0.00 | 100 | 1006.9 |
| 20260901045503 | 59 | 0 | 0.0 | 0.0 | 0.00 | 0.05 | 0.00 | 100 | 1005.9 |
| 20260901045004 | 59 | 0 | 0.0 | 0.0 | 0.00 | 0.05 | 0.00 | 100 | 1005.9 |
| 20260901044506 | 59 | 0 | 0.0 | 0.0 | 0.00 | 0.05 | 0.00 | 100 | 1005.9 |
| 20260901044005 | 59 | 0 | 0.0 | 0.0 | 0.00 | 0.05 | 0.00 | 100 | 1006.9 |
| 20260901043503 | 59 | 0 | 0.0 | 0.0 | 0.00 | 0.05 | 0.00 | 100 | 1006.9 |
| 20260901043005 | 58 | 0 | 0.0 | 0.0 | 0.00 | 0.05 | 0.00 | 100 | 1006.9 |
| 20260901042503 | 58 | 0 | 0.0 | 0.0 | 0.00 | 0.05 | 0.00 | 100 | 1006.9 |
| 20260901042004 | 58 | 0 | 0.0 | 0.0 | 0.00 | 0.05 | 0.00 | 100 | 1006.9 |
| 20260901040504 | 58 | 0 | 0.0 | 0.0 | 0.00 | 0.05 | 0.00 | 100 | 1006.9 |
| 20260901040005 | 58 | 0 | 0.0 | 0.0 | 0.00 | 0.05 | 0.00 | 100 | 1006.9 |
| 20260901035503 | 58 | 0 | 0.0 | 0.0 | 0.00 | 0.05 | 0.00 | 100 | 1006.9 |
| 20260901035004 | 58 | 0 | 0.0 | 0.0 | 0.00 | 0.05 | 0.00 | 100 | 1006.9 |
| 20260901034504 | 58 | 0 | 0.0 | 0.0 | 0.00 | 0.05 | 0.00 | 100 | 1006.9 |
| 20260901034005 | 58 | 0 | 0.0 | 0.0 | 0.00 | 0.05 | 0.00 | 100 | 1005.9 |
| 20260901033005 | 58 | 0 | 0.0 | 0.0 | 0.00 | 0.05 | 0.00 | 100 | 1005.9 |
| 20260901032503 | 57 | 0 | 0.0 | 0.0 | 0.00 | 0.05 | 0.00 | 100 | 1005.9 |
| 20260901031504 | 57 | 0 | 0.0 | 0.0 | 0.00 | 0.05 | 0.00 | 100 | 1005.9 |
| 20260901031005 | 57 | 0 | 0.0 | 0.0 | 0.00 | 0.05 | 0.00 | 100 | 1005.9 |
| 20260901025505 | 58 | 0 | 0.0 | 0.0 | 0.00 | 0.05 | 0.00 | 100 | 1005.9 |
| 20260901025005 | 58 | 0 | 0.0 | 0.0 | 0.00 | 0.05 | 0.00 | 100 | 1005.9 |
| 20260901024503 | 58 | 0 | 0.0 | 0.0 | 0.00 | 0.05 | 0.00 | 100 | 1005.9 |
| 20260901024005 | 58 | 0 | 0.0 | 0.0 | 0.00 | 0.05 | 0.00 | 100 | 1005.9 |
| 20260901023503 | 58 | 0 | 0.0 | 0.0 | 0.00 | 0.05 | 0.00 | 100 | 1005.9 |
| 20260901023004 | 58 | 0 | 0.0 | 0.0 | 0.00 | 0.05 | 0.00 | 100 | 1005.9 |
| 20260901022503 | 58 | 0 | 0.0 | 0.0 | 0.00 | 0.05 | 0.00 | 100 | 1004.9 |
| 20260901022005 | 59 | 248 | 0.0 | 1.0 | 0.00 | 0.05 | 0.00 | 100 | 1004.9 |
| 20260901021503 | 59 | 248 | 0.0 | 1.0 | 0.00 | 0.05 | 0.00 | 100 | 1004.9 |
| 20260901021004 | 59 | 0 | 0.0 | 0.0 | 0.00 | 0.05 | 0.00 | 100 | 1005.9 |
| 20260901020504 | 59 | 0 | 0.0 | 0.0 | 0.00 | 0.05 | 0.00 | 100 | 1005.9 |
| 20260901020004 | 59 | 0 | 0.0 | 0.0 | 0.00 | 0.05 | 0.00 | 100 | 1005.9 |
| 20260901015504 | 59 | 0 | 0.0 | 0.0 | 0.00 | 0.05 | 0.00 | 100 | 1005.9 |
| 20260901015004 | 59 | 0 | 0.0 | 0.0 | 0.00 | 0.05 | 0.00 | 100 | 1005.9 |
| 20260901013503 | 59 | 0 | 0.0 | 0.0 | 0.00 | 0.05 | 0.00 | 100 | 1005.9 |
| 20260901012004 | 59 | 230 | 0.0 | 5.0 | 0.00 | 0.05 | 0.00 | 100 | 1005.9 |
| 20260901011504 | 60 | 0 | 0.0 | 0.0 | 0.00 | 0.05 | 0.00 | 100 | 1005.9 |
| 20260901011005 | 60 | 232 | 0.0 | 3.0 | 0.00 | 0.05 | 0.00 | 100 | 1004.9 |
| 20260901010504 | 60 | 233 | 0.0 | 3.0 | 0.00 | 0.05 | 0.00 | 100 | 1004.9 |
| 20260901010004 | 60 | 1 | 0.0 | 2.0 | 0.00 | 0.05 | 0.00 | 100 | 1004.9 |
| 20260901005503 | 60 | 242 | 0.0 | 3.0 | 0.00 | 0.05 | 0.00 | 100 | 1006.9 |
| 20260901005004 | 60 | 242 | 0.0 | 3.0 | 0.00 | 0.05 | 0.00 | 100 | 1006.9 |
| 20260901004504 | 60 | 277 | 0.0 | 4.0 | 0.00 | 0.05 | 0.00 | 100 | 1006.9 |
| 20260901004004 | 60 | 275 | 1.0 | 7.0 | 0.00 | 0.05 | 0.00 | 100 | 1005.9 |
| 20260901003503 | 60 | 261 | 1.0 | 7.0 | 0.00 | 0.05 | 0.00 | 100 | 1005.9 |
| 20260901003004 | 60 | 237 | 1.0 | 7.0 | 0.00 | 0.05 | 0.00 | 100 | 1005.9 |
| 20260901002504 | 60 | 229 | 2.0 | 7.0 | 0.00 | 0.05 | 0.00 | 100 | 1005.9 |
| 20260901002004 | 60 | 244 | 2.0 | 6.0 | 0.00 | 0.05 | 0.00 | 100 | 1005.9 |
| 20260901001503 | 60 | 246 | 2.0 | 6.0 | 0.00 | 0.05 | 0.00 | 100 | 1005.9 |
| 20260901001005 | 60 | 229 | 1.0 | 5.0 | 0.00 | 0.05 | 0.00 | 100 | 1005.9 |
| 20260901000004 | 60 | 109 | 0.0 | 3.0 | 0.00 | 0.05 | 0.00 | 100 | 1005.9 |
| 20260831235004 | 60 | 282 | 1.0 | 4.0 | 0.00 | 0.05 | 0.00 | 100 | 1005.9 |
| 20260831234504 | 60 | 225 | 1.0 | 6.0 | 0.00 | 0.05 | 0.00 | 100 | 1005.9 |
| 20260831233504 | 60 | 230 | 0.0 | 4.0 | 0.00 | 0.05 | 0.00 | 100 | 1005.9 |
| 20260831232503 | 59 | 230 | 0.0 | 4.0 | 0.00 | 0.05 | 0.00 | 97 | 1005.9 |
| 20260831232004 | 59 | 242 | 0.0 | 4.0 | 0.00 | 0.05 | 0.00 | 97 | 1005.9 |
| 20260831231503 | 59 | 158 | 0.0 | 1.0 | 0.00 | 0.05 | 0.00 | 100 | 1005.9 |
| 20260831231005 | 59 | 238 | 0.0 | 2.0 | 0.00 | 0.05 | 0.00 | 100 | 1005.9 |
| 20260831230503 | 60 | 273 | 0.0 | 2.0 | 0.00 | 0.05 | 0.00 | 100 | 1005.9 |
| 20260831230005 | 60 | 205 | 1.0 | 5.0 | 0.00 | 0.05 | 0.00 | 100 | 1005.9 |
| 20260831225504 | 60 | 202 | 1.0 | 5.0 | 0.00 | 0.05 | 0.00 | 100 | 1005.9 |
| 20260831225005 | 60 | 218 | 0.0 | 2.0 | 0.00 | 0.05 | 0.00 | 97 | 1005.9 |
| 20260831224503 | 60 | 226 | 1.0 | 5.0 | 0.00 | 0.05 | 0.00 | 97 | 1005.9 |
| 20260831224004 | 60 | 229 | 1.0 | 5.0 | 0.00 | 0.05 | 0.00 | 97 | 1005.9 |
| 20260831223005 | 60 | 214 | 1.0 | 8.0 | 0.00 | 0.05 | 0.00 | 97 | 1005.9 |
| 20260831222503 | 60 | 257 | 0.0 | 4.0 | 0.00 | 0.05 | 0.00 | 97 | 1004.9 |
| 20260831222004 | 60 | 244 | 0.0 | 3.0 | 0.00 | 0.05 | 0.00 | 97 | 1004.9 |
| 20260831221503 | 60 | 158 | 0.0 | 3.0 | 0.00 | 0.05 | 0.00 | 97 | 1004.9 |
| 20260831221005 | 60 | 212 | 1.0 | 7.0 | 0.00 | 0.05 | 0.00 | 97 | 1005.9 |
| 20260831220503 | 60 | 217 | 1.0 | 7.0 | 0.00 | 0.05 | 0.00 | 97 | 1005.9 |
| 20260831220005 | 60 | 218 | 1.0 | 5.0 | 0.00 | 0.05 | 0.00 | 97 | 1005.9 |
| 20260831215504 | 60 | 209 | 1.0 | 5.0 | 0.00 | 0.05 | 0.05 | 97 | 1004.9 |
| 20260831215004 | 60 | 210 | 1.0 | 5.0 | 0.00 | 0.05 | 0.05 | 97 | 1004.9 |
| 20260831214503 | 60 | 224 | 1.0 | 7.0 | 0.00 | 0.05 | 0.05 | 97 | 1004.9 |
| 20260831213004 | 60 | 206 | 1.0 | 5.0 | 0.00 | 0.05 | 0.05 | 97 | 1005.9 |
| 20260831212503 | 60 | 193 | 1.0 | 5.0 | 0.00 | 0.05 | 0.05 | 97 | 1005.9 |
| 20260831212004 | 60 | 185 | 1.0 | 5.0 | 0.00 | 0.05 | 0.05 | 97 | 1005.9 |
| 20260831211504 | 60 | 190 | 2.0 | 5.0 | 0.00 | 0.05 | 0.05 | 97 | 1005.9 |
| 20260831211004 | 60 | 186 | 2.0 | 6.0 | 0.00 | 0.05 | 0.05 | 97 | 1005.9 |
| 20260831210503 | 60 | 185 | 2.0 | 6.0 | 0.00 | 0.05 | 0.05 | 96 | 1005.9 |
| 20260831210005 | 60 | 183 | 2.0 | 5.0 | 0.00 | 0.05 | 0.05 | 96 | 1005.9 |
| 20260831205005 | 59 | 192 | 3.0 | 6.0 | 0.00 | 0.05 | 0.05 | 96 | 1005.9 |
| 20260831204503 | 59 | 188 | 2.0 | 6.0 | 0.00 | 0.05 | 0.05 | 96 | 1005.9 |
| 20260831204004 | 59 | 187 | 2.0 | 5.0 | 0.00 | 0.05 | 0.05 | 96 | 1005.9 |
| 20260831203504 | 59 | 194 | 2.0 | 6.0 | 0.00 | 0.05 | 0.05 | 96 | 1005.9 |
| 20260831203005 | 59 | 192 | 2.0 | 6.0 | 0.00 | 0.05 | 0.05 | 96 | 1005.9 |
| 20260831202503 | 59 | 186 | 2.0 | 5.0 | 0.00 | 0.05 | 0.05 | 96 | 1005.9 |
| 20260831201504 | 59 | 184 | 1.0 | 4.0 | 0.00 | 0.05 | 0.05 | 96 | 1005.9 |
| 20260831201004 | 59 | 190 | 0.0 | 3.0 | 0.00 | 0.05 | 0.05 | 96 | 1005.9 |
| 20260831200503 | 59 | 188 | 0.0 | 3.0 | 0.00 | 0.05 | 0.05 | 96 | 1005.9 |
| 20260831200005 | 59 | 202 | 0.0 | 4.0 | 0.00 | 0.05 | 0.05 | 95 | 1005.9 |
| 20260831195503 | 59 | 185 | 1.0 | 4.0 | 0.00 | 0.05 | 0.05 | 95 | 1005.9 |
| 20260831195004 | 59 | 185 | 2.0 | 5.0 | 0.00 | 0.05 | 0.05 | 95 | 1005.9 |
| 20260831194503 | 59 | 195 | 2.0 | 5.0 | 0.00 | 0.05 | 0.05 | 95 | 1005.9 |
| 20260831194005 | 59 | 194 | 2.0 | 5.0 | 0.00 | 0.05 | 0.05 | 95 | 1005.9 |
| 20260831193005 | 59 | 181 | 3.0 | 6.0 | 0.00 | 0.05 | 0.05 | 94 | 1005.9 |
| 20260831192004 | 59 | 202 | 1.0 | 4.0 | 0.00 | 0.05 | 0.05 | 94 | 1005.9 |
| 20260831191504 | 60 | 193 | 1.0 | 4.0 | 0.00 | 0.05 | 0.05 | 94 | 1005.9 |
| 20260831191004 | 60 | 186 | 1.0 | 5.0 | 0.00 | 0.05 | 0.05 | 94 | 1005.9 |
| 20260831190503 | 60 | 193 | 3.0 | 5.0 | 0.00 | 0.05 | 0.05 | 94 | 1005.9 |
| 20260831190005 | 60 | 197 | 3.0 | 5.0 | 0.00 | 0.05 | 0.05 | 95 | 1005.9 |
| 20260831185503 | 60 | 190 | 3.0 | 6.0 | 0.00 | 0.05 | 0.05 | 94 | 1005.9 |
| 20260831185005 | 60 | 183 | 3.0 | 6.0 | 0.00 | 0.05 | 0.05 | 94 | 1005.9 |
| 20260831184004 | 60 | 196 | 4.0 | 7.0 | 0.00 | 0.05 | 0.05 | 94 | 1005.9 |
| 20260831183504 | 60 | 195 | 3.0 | 7.0 | 0.00 | 0.05 | 0.05 | 94 | 1005.9 |
| 20260831183005 | 60 | 193 | 2.0 | 5.0 | 0.00 | 0.05 | 0.05 | 94 | 1005.9 |
| 20260831182503 | 60 | 190 | 1.0 | 4.0 | 0.00 | 0.05 | 0.05 | 94 | 1005.9 |
| 20260831182005 | 61 | 196 | 1.0 | 5.0 | 0.00 | 0.05 | 0.05 | 94 | 1005.9 |
| 20260831181004 | 61 | 192 | 1.0 | 4.0 | 0.00 | 0.05 | 0.05 | 94 | 1005.9 |
| 20260831180503 | 61 | 188 | 0.0 | 4.0 | 0.00 | 0.05 | 0.05 | 93 | 1005.9 |
| 20260831180005 | 61 | 218 | 0.0 | 8.0 | 0.00 | 0.05 | 0.05 | 93 | 1005.9 |
| 20260831175503 | 61 | 200 | 1.0 | 8.0 | 0.00 | 0.05 | 0.05 | 93 | 1005.9 |
| 20260831175004 | 62 | 188 | 0.0 | 5.0 | 0.00 | 0.05 | 0.05 | 93 | 1005.9 |
| 20260831174504 | 62 | 211 | 0.0 | 4.0 | 0.00 | 0.05 | 0.05 | 92 | 1005.9 |
| 20260831174004 | 62 | 219 | 1.0 | 7.0 | 0.00 | 0.05 | 0.05 | 92 | 1004.9 |
| 20260831173503 | 63 | 209 | 2.0 | 7.0 | 0.00 | 0.05 | 0.05 | 92 | 1004.9 |
| 20260831173005 | 63 | 197 | 3.0 | 6.0 | 0.00 | 0.05 | 0.05 | 92 | 1004.9 |
| 20260831172004 | 64 | 192 | 2.0 | 4.0 | 0.00 | 0.05 | 0.05 | 92 | 1004.9 |
| 20260831171503 | 64 | 197 | 2.0 | 5.0 | 0.00 | 0.05 | 0.05 | 92 | 1004.9 |
| 20260831171005 | 64 | 209 | 2.0 | 5.0 | 0.00 | 0.05 | 0.05 | 92 | 1004.9 |
| 20260831170004 | 64 | 202 | 3.0 | 8.0 | 0.00 | 0.05 | 0.05 | 91 | 1004.9 |
| 20260831165503 | 64 | 212 | 4.0 | 10.0 | 0.00 | 0.05 | 0.05 | 91 | 1004.9 |
| 20260831165005 | 64 | 227 | 3.0 | 10.0 | 0.00 | 0.05 | 0.05 | 92 | 1004.9 |
| 20260831164503 | 65 | 216 | 1.0 | 6.0 | 0.00 | 0.05 | 0.05 | 92 | 1004.9 |
| 20260831164004 | 65 | 191 | 3.0 | 8.0 | 0.00 | 0.05 | 0.05 | 92 | 1004.9 |
| 20260831163504 | 65 | 196 | 4.0 | 11.0 | 0.00 | 0.05 | 0.05 | 92 | 1004.9 |
| 20260831162004 | 65 | 191 | 4.0 | 10.0 | 0.00 | 0.05 | 0.05 | 92 | 1004.9 |
| 20260831161504 | 66 | 207 | 5.0 | 13.0 | 0.00 | 0.05 | 0.05 | 92 | 1004.9 |
| 20260831161004 | 66 | 209 | 6.0 | 13.0 | 0.00 | 0.05 | 0.05 | 92 | 1004.9 |
| 20260831160503 | 65 | 199 | 7.0 | 16.0 | 0.00 | 0.05 | 0.05 | 92 | 1004.9 |
| 20260831160005 | 65 | 192 | 7.0 | 16.0 | 0.00 | 0.05 | 0.05 | 93 | 1004.9 |
| 20260831155503 | 65 | 190 | 6.0 | 12.0 | 0.00 | 0.05 | 0.05 | 93 | 1004.9 |
| 20260831155004 | 65 | 191 | 6.0 | 12.0 | 0.00 | 0.05 | 0.05 | 92 | 1004.9 |
| 20260831154504 | 65 | 197 | 6.0 | 12.0 | 0.00 | 0.05 | 0.05 | 92 | 1004.9 |
| 20260831154004 | 65 | 199 | 7.0 | 12.0 | 0.00 | 0.05 | 0.05 | 92 | 1004.9 |
| 20260831153504 | 65 | 196 | 7.0 | 12.0 | 0.00 | 0.05 | 0.05 | 92 | 1004.9 |
| 20260831152503 | 65 | 196 | 7.0 | 13.0 | 0.00 | 0.05 | 0.05 | 92 | 1004.9 |
| 20260831152004 | 65 | 198 | 7.0 | 15.0 | 0.00 | 0.05 | 0.05 | 92 | 1004.9 |
| 20260831151005 | 65 | 198 | 5.0 | 11.0 | 0.00 | 0.05 | 0.05 | 91 | 1004.9 |
| 20260831150503 | 65 | 198 | 4.0 | 8.0 | 0.00 | 0.05 | 0.05 | 90 | 1004.9 |
| 20260831150005 | 65 | 185 | 5.0 | 10.0 | 0.00 | 0.05 | 0.05 | 89 | 1004.9 |
| 20260831145503 | 66 | 175 | 5.0 | 10.0 | 0.00 | 0.05 | 0.05 | 89 | 1004.9 |
| 20260831145004 | 66 | 183 | 4.0 | 8.0 | 0.00 | 0.05 | 0.05 | 89 | 1004.9 |
| 20260831142503 | 67 | 179 | 6.0 | 13.0 | 0.00 | 0.05 | 0.05 | 87 | 1004.9 |
| 20260831141504 | 67 | 169 | 5.0 | 9.0 | 0.00 | 0.05 | 0.05 | 88 | 1004.9 |
| 20260831140503 | 67 | 170 | 5.0 | 14.0 | 0.00 | 0.05 | 0.05 | 89 | 1005.9 |
| 20260831140004 | 67 | 179 | 5.0 | 14.0 | 0.00 | 0.05 | 0.05 | 91 | 1005.9 |